Location: Eurasberg
(48.3353°N, 11.0839°E)
Time: 13:52:22
(UTC+00:00)

Timation 1 Rocket - Pass Details

Date: 19 April 2026
Orbit: 895 x 908 km, 70.0° (Epoch: 14 May)

Event Time Altitude Azimuth Distance (km) Brightness Sun altitude
Exits shadow 23:34:40 46° 85° (E) 1,200 4.9 -30.1°
Drops below altitude 10° 23:39:36 10° 38° (NE) 2,602 7.4 -30.0°
Sets 23:42:10 0° 33° (NNE) 3,548 8.4 -29.9°
